User: anonymous   Login
Location: Newark
(34.9471°N, 136.1778°E)
Time: 22:39:07
(UTC+00:00)
Language:

METEOR M2 - Orbit

View from above orbital plane
View from above orbital plane
View from above satellite
View from above satellite

Ground track
Ground track

The orbit data is extracted from the following two-line orbital elements,

1 40069U 14037A   20052.41963414 -.00000043  00000-0 -35539-6 0  9995
2 40069  98.5200  94.2869 0004540 260.9165  99.1503 14.20669928291595
Epoch (UTC): 21 February 2020 10:04:16
Eccentricity: 0.0004540
inclination: 98.5200°
perigee height: 820 km
apogee height: 826 km
right ascension of ascending node: 94.2869°
argument of perigee: 260.9165°
revolutions per day: 14.20669928
mean anomaly at epoch: 99.1503°
orbit number at epoch: 29159

The dashed part of the orbit path shows where the satellite is in the earth's shadow,  

DLR